User: anonymous
Location: Walnut Point State Park
(39.6958°N, 88.0345°W)
Time: 23:17:33
(UTC-05:00)
Language:

ATLAS 3B R/B - Orbit

View from above orbital plane
View from above orbital plane
View from above satellite
View from above satellite

Ground track
Ground track

The orbit data is extracted from the following two-line orbital elements,

1 28538U 05004B   14260.09920975 0.00000030  00000-0  46098-4 0    06
2 28538  63.8180 308.4462 0209000 241.3754 118.6246 13.43031789    05
Epoch (UTC): 17 September 2014 02:22:51
Eccentricity: 0.0209000
inclination: 63.8180°
perigee height: 942 km
apogee height: 1254 km
right ascension of ascending node: 308.4462°
argument of perigee: 241.3754°
revolutions per day: 13.43031789
mean anomaly at epoch: 118.6246°
orbit number at epoch: 0

The dashed part of the orbit path shows where the satellite is in the earth's shadow,  

DLR